Time,TemperatureF,DewpointF,PressureIn,WindDirection,WindDirectionDegrees,WindSpeedMPH,WindSpeedGustMPH,Humidity,HourlyPrecipIn,Conditions,Clouds,dailyrainin,SoftwareType,DateUTC
2013-06-25 00:11:00,64.0,29.0,-100.00,South,188,24.0,35.0,26,0.00,,,-99.99,,2013-06-25 06:11:00,
2013-06-25 00:43:00,64.0,28.0,-100.00,SSW,205,11.0,24.0,26,0.00,,,-99.99,,2013-06-25 06:43:00,
2013-06-25 01:02:00,63.0,28.0,-100.00,SW,215,9.0,16.0,26,0.00,,,-99.99,,2013-06-25 07:02:00,
2013-06-25 01:11:00,63.0,28.0,-100.00,SW,219,6.0,11.0,26,0.00,,,-99.99,,2013-06-25 07:11:00,
2013-06-25 01:33:00,62.0,29.0,-100.00,SSW,198,13.0,24.0,28,0.00,,,-99.99,,2013-06-25 07:33:00,
2013-06-25 01:43:00,62.0,29.0,-100.00,SSW,202,7.0,14.0,29,0.00,,,-99.99,,2013-06-25 07:43:00,
2013-06-25 02:01:00,62.0,29.0,-100.00,SSW,198,8.0,16.0,29,0.00,,,-99.99,,2013-06-25 08:01:00,
2013-06-25 02:34:00,61.0,29.0,-100.00,SSW,200,9.0,19.0,29,0.00,,,-99.99,,2013-06-25 08:34:00,
2013-06-25 02:43:00,61.0,29.0,-100.00,SSW,208,4.0,7.0,30,0.00,,,-99.99,,2013-06-25 08:43:00,
2013-06-25 03:43:00,56.0,31.0,-100.00,SSW,196,6.0,7.0,39,0.00,,,-99.99,,2013-06-25 09:43:00,
2013-06-25 04:01:00,55.0,31.0,-100.00,South,181,6.0,7.0,39,0.00,,,-99.99,,2013-06-25 10:01:00,
2013-06-25 04:33:00,52.0,33.0,-100.00,SSW,193,7.0,14.0,48,0.00,,,-99.99,,2013-06-25 10:33:00,
2013-06-25 04:42:00,53.0,34.0,-100.00,WSW,257,12.0,17.0,48,0.00,,,-99.99,,2013-06-25 10:42:00,
2013-06-25 05:11:00,52.0,35.0,-100.00,SW,233,7.0,13.0,53,0.00,,,-99.99,,2013-06-25 11:11:00,
2013-06-25 05:43:00,52.0,36.0,-100.00,West,268,6.0,8.0,55,0.00,,,-99.99,,2013-06-25 11:43:00,
2013-06-25 06:01:00,49.0,35.0,-100.00,North,352,6.0,7.0,59,0.00,,,-99.99,,2013-06-25 12:01:00,
2013-06-25 06:43:00,52.0,36.0,-100.00,NNW,330,4.0,8.0,55,0.00,,,-99.99,,2013-06-25 12:43:00,
2013-06-25 07:01:00,54.0,36.0,-100.00,NNW,339,10.0,18.0,51,0.00,,,-99.99,,2013-06-25 13:01:00,
2013-06-25 08:34:00,58.0,37.0,-100.00,SW,223,20.0,32.0,45,0.00,,,-99.99,,2013-06-25 14:34:00,
2013-06-25 08:43:00,59.0,36.0,-100.00,SW,226,25.0,36.0,43,0.00,,,-99.99,,2013-06-25 14:43:00,
2013-06-25 09:11:00,60.0,37.0,-100.00,SW,226,24.0,35.0,42,0.00,,,-99.99,,2013-06-25 15:11:00,
2013-06-25 09:44:00,61.0,37.0,-100.00,SW,230,23.0,32.0,40,0.00,,,-99.99,,2013-06-25 15:44:00,
2013-06-25 10:03:00,62.0,36.0,-100.00,SW,233,24.0,35.0,37,0.00,,,-99.99,,2013-06-25 16:03:00,
2013-06-25 10:12:00,63.0,34.0,-100.00,SW,230,27.0,37.0,34,0.00,,,-99.99,,2013-06-25 16:12:00,
2013-06-25 10:44:00,64.0,34.0,-100.00,SW,227,26.0,37.0,33,0.00,,,-99.99,,2013-06-25 16:44:00,
2013-06-25 11:44:00,66.0,34.0,-100.00,SW,227,22.0,32.0,30,0.00,,,-99.99,,2013-06-25 17:44:00,
2013-06-25 12:02:00,66.0,34.0,-100.00,WSW,241,25.0,39.0,30,0.00,,,-99.99,,2013-06-25 18:02:00,
2013-06-25 12:44:00,68.0,34.0,-100.00,SW,233,22.0,33.0,28,0.00,,,-99.99,,2013-06-25 18:44:00,
2013-06-25 13:44:00,67.0,36.0,-100.00,SW,229,20.0,29.0,31,0.00,,,-99.99,,2013-06-25 19:44:00,
2013-06-25 14:02:00,66.0,35.0,-100.00,WSW,241,22.0,30.0,32,0.00,,,-99.99,,2013-06-25 20:02:00,
2013-06-25 14:42:00,67.0,35.0,-100.00,WSW,251,21.0,29.0,31,0.00,,,-99.99,,2013-06-25 20:42:00,
2013-06-25 15:11:00,67.0,35.0,-100.00,SW,233,19.0,30.0,30,0.00,,,-99.99,,2013-06-25 21:11:00,
2013-06-25 15:43:00,70.0,36.0,-100.00,SW,230,16.0,23.0,29,0.00,,,-99.99,,2013-06-25 21:43:00,
2013-06-25 15:53:00,68.0,35.0,-100.00,WSW,240,17.0,27.0,29,0.00,,,-99.99,,2013-06-25 21:53:00,
2013-06-25 16:01:00,68.0,35.0,-100.00,WSW,243,18.0,24.0,29,0.00,,,-99.99,,2013-06-25 22:01:00,
2013-06-25 16:11:00,68.0,35.0,-100.00,WSW,243,18.0,29.0,29,0.00,,,-99.99,,2013-06-25 22:11:00,
2013-06-25 16:42:00,71.0,33.0,-100.00,SW,232,20.0,32.0,24,0.00,,,-99.99,,2013-06-25 22:42:00,
2013-06-25 17:43:00,72.0,35.0,-100.00,SW,229,18.0,26.0,25,0.00,,,-99.99,,2013-06-25 23:43:00,
2013-06-25 17:52:00,72.0,35.0,-100.00,SSW,212,17.0,24.0,25,0.00,,,-99.99,,2013-06-25 23:52:00,
2013-06-25 18:42:00,72.0,34.0,-100.00,SW,236,17.0,29.0,25,0.00,,,-99.99,,2013-06-26 00:42:00,
2013-06-25 19:01:00,71.0,34.0,-100.00,SW,226,16.0,24.0,25,0.00,,,-99.99,,2013-06-26 01:01:00,
2013-06-25 19:43:00,71.0,35.0,-100.00,SW,224,11.0,16.0,27,0.00,,,-99.99,,2013-06-26 01:43:00,
2013-06-25 19:52:00,69.0,35.0,-100.00,SW,224,10.0,16.0,28,0.00,,,-99.99,,2013-06-26 01:52:00,
2013-06-25 20:02:00,70.0,35.0,-100.00,SW,226,9.0,16.0,27,0.00,,,-99.99,,2013-06-26 02:02:00,
2013-06-25 20:11:00,69.0,35.0,-100.00,SW,216,9.0,11.0,28,0.00,,,-99.99,,2013-06-26 02:11:00,
2013-06-25 20:34:00,68.0,34.0,-100.00,SSW,210,6.0,10.0,29,0.00,,,-99.99,,2013-06-26 02:34:00,
2013-06-25 20:43:00,67.0,35.0,-100.00,SSW,198,7.0,11.0,31,0.00,,,-99.99,,2013-06-26 02:43:00,
2013-06-25 21:02:00,66.0,35.0,-100.00,SSW,193,7.0,11.0,32,0.00,,,-99.99,,2013-06-26 03:02:00,
2013-06-25 21:11:00,65.0,35.0,-100.00,South,186,7.0,9.0,32,0.00,,,-99.99,,2013-06-26 03:11:00,
2013-06-25 21:43:00,61.0,35.0,-100.00,SSE,155,6.0,8.0,37,0.00,,,-99.99,,2013-06-26 03:43:00,
2013-06-25 22:12:00,62.0,35.0,-100.00,South,178,8.0,10.0,37,0.00,,,-99.99,,2013-06-26 04:12:00,
2013-06-25 22:43:00,62.0,35.0,-100.00,South,174,8.0,11.0,35,0.00,,,-99.99,,2013-06-26 04:43:00,
2013-06-25 23:02:00,62.0,34.0,-100.00,South,172,8.0,11.0,36,0.00,,,-99.99,,2013-06-26 05:02:00,
2013-06-25 23:34:00,61.0,35.0,-100.00,South,175,9.0,12.0,37,0.00,,,-99.99,,2013-06-26 05:34:00,
2013-06-25 23:43:00,61.0,35.0,-100.00,South,176,10.0,12.0,37,0.00,,,-99.99,,2013-06-26 05:43:00,